[[{"header":{"parameterUnit":"m.s-1","parameterCategory":1,"la1":30.2991,"la2":30.254,"lo1":-89.0895,"lo2":-89.0444,"dy":0.0017,"dx":0.0017,"nx":28,"ny":28,"refTime":"2024-02-11T09:00:00:Z","depth":0,"parameterNumber":2,"parameterNumberName":"U-component_of_WINDS"},"data":[0,0,0,0,0,0,0,0,0,0,0,0,0,0,0,0,0,0,0,0,0,0,0,0,0,0,0,0,0,0,0,0,0,0,0,0,0,0,0,0,0,0,0,0,0,0,0,0,0,0,0,0,0,0,0,0,0,0,0.3979,0.3979,0,0.4026,0.4027,0.4027,0.4036,0.4036,0.4035,0.4035,0.4088,0.409,0.4092,0,0,0,0,0,0,0,0,0,0,0,0,0,0.3902,0.3903,0.3979,0.3979,0.398,0.4026,0.4027,0.4027,0.4036,0.4036,0.4035,0.4035,0.4088,0.409,0.4092,0,0,0,0,0,0,0,0,0,0,0,0,0,0.3941,0.3904,0.3979,0.399,0.3991,0.4026,0.4027,0.4027,0.4036,0.4036,0.4035,0.4034,0.4087,0.409,0.4092,0.4121,0,0,0.4101,0.4102,0,0,0,0,0,0,0,0,0.3939,0.3944,0.3988,0.3989,0.3991,0.4024,0.4019,0.4059,0.4036,0.4019,0.4035,0.4034,0.4068,0.4072,0.4082,0.4123,0.4126,0.4101,0.4102,0.4104,0.4104,0,0,0,0,0,0,0,0.3936,0.3942,0.3998,0.3988,0.399,0.3994,0.3999,0.4027,0.4047,0.4021,0.4021,0.4027,0.4069,0.408,0.4084,0.4126,0.4101,0.4103,0.4105,0.4106,0.4195,0.4196,0,0,0,0,0,0,0.3931,0.3939,0.3996,0.3999,0.3963,0.3996,0.4002,0.4014,0.4046,0.405,0.4027,0.4027,0.4076,0.4081,0.4086,0.4122,0.4104,0.4106,0.4108,0.4194,0.4195,0.4196,0,0,0,0,0,0,0.3929,0.3936,0.3994,0.397,0.3977,0.3998,0.4012,0.4016,0.4027,0.4051,0.4055,0.4034,0.4075,0.4082,0.4112,0.4124,0.4107,0.411,0.4193,0.4194,0.4195,0.4195,0,0,0,0,0,0,0.3927,0.3935,0.3944,0.397,0.3978,0.4018,0.4013,0.4017,0.4031,0.4031,0.4059,0.4063,0.4075,0.4108,0.4115,0.4128,0.4112,0.4192,0.4194,0.4195,0.4194,0.4196,0.4197,0,0,0,0,0,0.3924,0.3943,0.3945,0.3952,0.3991,0.4019,0.4024,0.4036,0.4031,0.4042,0.4058,0.4062,0.4121,0.4111,0.4119,0.4133,0.4192,0.4193,0.4195,0.4193,0.4195,0.4197,0,0,0,0,0,0,0.392,0.3947,0.3949,0.3976,0.3995,0.402,0.4034,0.4038,0.406,0.4059,0.4075,0.4081,0.4111,0.4125,0.4112,0.4163,0.4157,0.416,0.4153,0.4155,0.4157,0.4153,0.4114,0,0,0,0,0,0.3923,0.3941,0.3964,0.3986,0.3995,0.4013,0.4026,0.4033,0.4054,0.4063,0.408,0.4102,0.4126,0.4141,0.4164,0.4196,0.4203,0.4209,0.4211,0.4212,0.4216,0.4235,0.4239,0.4201,0.4201,0.4201,0,0,0.3928,0.3945,0.3956,0.3986,0.4001,0.4023,0.402,0.4042,0.4058,0.4066,0.4096,0.411,0.4135,0.4166,0.4181,0.4179,0.4227,0.4215,0.4215,0.4218,0.4237,0.4241,0.4244,0.4203,0.4202,0.4202,0,0,0.3949,0.3962,0.3983,0.3998,0.4021,0.4033,0.4038,0.4062,0.4071,0.4101,0.4108,0.4128,0.4168,0.4186,0.4201,0.4229,0.4234,0.4236,0.4246,0.4265,0.4268,0.4271,0.4283,0.4286,0.4239,0.4239,0.4239,0,0.3953,0.3983,0.3994,0.4015,0.403,0.4036,0.4059,0.4074,0.4103,0.4114,0.411,0.4161,0.4178,0.4215,0.4222,0.4233,0.4241,0.4233,0.4266,0.4269,0.4272,0.4283,0.4288,0.4239,0.4239,0.4239,0.4239,0,0.3988,0.4009,0.4023,0.4051,0.4066,0.4088,0.4104,0.4119,0.4125,0.4138,0.4169,0.419,0.4218,0.4227,0.4234,0.4265,0.4263,0.4263,0.4257,0.4275,0.4287,0.4291,0.4239,0.4239,0.4239,0.4239,0,0,0.4008,0.4041,0.4046,0.4059,0.4085,0.4103,0.4126,0.4152,0.4165,0.4186,0.4207,0.4241,0.4241,0.4257,0.4266,0.4283,0.4306,0.4281,0.4281,0.4286,0.4344,0.4345,0.435,0.4309,0.431,0.431,0.4342,0,0.4033,0.4073,0.4083,0.4118,0.4139,0.4146,0.4167,0.4186,0.4199,0.422,0.4234,0.4259,0.4256,0.4266,0.4282,0.4299,0.4318,0.4297,0.4331,0.4332,0.4326,0.4355,0.4356,0.4385,0.4346,0.4347,0.4348,0,0.4067,0.4087,0.4124,0.4148,0.4157,0.4175,0.4201,0.422,0.4243,0.4251,0.4269,0.4277,0.4304,0.4296,0.4334,0.432,0.4334,0.4345,0.4346,0.4351,0.4342,0.4363,0.4395,0.44,0.4354,0.4354,0.4353,0,0.408,0.4116,0.4143,0.4154,0.4183,0.4195,0.4208,0.423,0.4246,0.4268,0.4279,0.4305,0.432,0.434,0.4356,0.4348,0.4394,0.4387,0.4403,0.4403,0.4414,0.4413,0.445,0.4421,0.442,0.442,0.442,0,0.4107,0.413,0.4149,0.4166,0.4192,0.4205,0.4231,0.4245,0.4264,0.4285,0.4293,0.4313,0.4332,0.4355,0.4367,0.4398,0.4404,0.4414,0.4417,0.4414,0.4413,0.4425,0.4424,0.4422,0.4421,0.4421,0.4421,0,0.4127,0.414,0.417,0.4195,0.4202,0.422,0.4242,0.426,0.4272,0.4299,0.4306,0.4327,0.4355,0.4372,0.4407,0.4416,0.445,0.4452,0.4442,0.4444,0.4461,0.446,0.4508,0.4516,0.4479,0.4479,0.448,0,0.4144,0.4161,0.4187,0.4201,0.4214,0.4236,0.4252,0.4266,0.4282,0.431,0.4324,0.4352,0.4375,0.4419,0.4439,0.4467,0.447,0.4485,0.4475,0.4471,0.4473,0.4472,0.4475,0.4488,0.4488,0.4488,0.4488,0,0.4174,0.418,0.4201,0.4225,0.4243,0.4263,0.4283,0.4294,0.4311,0.433,0.4357,0.4375,0.4411,0.4439,0.4468,0.4484,0.449,0.4491,0.4497,0.4495,0.4489,0.4494,0.4449,0.4491,0.449,0.449,0.449,0.449,0.4194,0.421,0.4231,0.4255,0.4271,0.429,0.4308,0.4323,0.4345,0.4375,0.4382,0.4411,0.4436,0.4475,0.4491,0.4516,0.4514,0.4522,0.4524,0.4526,0.4528,0.4484,0.4521,0.4521,0.4521,0.4521,0.4521,0,0.4225,0.4239,0.4261,0.4288,0.4307,0.4309,0.4332,0.4349,0.4374,0.4395,0.4417,0.445,0.4478,0.4499,0.4528,0.4544,0.4548,0.4551,0.4551,0.4555,0.4527,0.452,0.4548,0.4548,0.4548,0.4548,0.4548,0.4548,0.4244,0.4272,0.4281,0.4318,0.4333,0.436,0.4373,0.4391,0.4408,0.4444,0.4467,0.448,0.4502,0.4533,0.4559,0.4565,0.4576,0.458,0.4586,0.456,0.4557,0.4554,0.4548,0.4581,0.4582,0.4613,0.4613,0.4613]},{"header":{"parameterUnit":"m.s-1","parameterCategory":1,"la1":30.2991,"la2":30.254,"lo1":-89.0895,"lo2":-89.0444,"dy":0.0017,"dx":0.0017,"nx":28,"ny":28,"refTime":"2024-02-11T09:00:00:Z","depth":0,"parameterNumber":3,"parameterNumberName":"V-component_of_WINDS"},"data":[0,0,0,0,0,0,0,0,0,0,0,0,0,0,0,0,0,0,0,0,0,0,0,0,0,0,0,0,0,0,0,0,0,0,0,0,0,0,0,0,0,0,0,0,0,0,0,0,0,0,0,0,0,0,0,0,0,0,3.2162,3.2162,0,3.2218,3.2218,3.2219,3.2216,3.2215,3.2214,3.2213,3.227,3.2272,3.2274,0,0,0,0,0,0,0,0,0,0,0,0,0,3.205,3.2052,3.2162,3.2162,3.2163,3.2218,3.2219,3.2219,3.2216,3.2215,3.2214,3.2213,3.2269,3.2271,3.2274,0,0,0,0,0,0,0,0,0,0,0,0,0,3.2102,3.2053,3.2161,3.2168,3.2169,3.2218,3.2219,3.2219,3.2216,3.2215,3.2214,3.2213,3.2268,3.2271,3.2275,3.232,0,0,3.2285,3.2286,0,0,0,0,0,0,0,0,3.2099,3.2106,3.2166,3.2168,3.2169,3.2209,3.22,3.2253,3.2217,3.2198,3.2213,3.2212,3.225,3.2255,3.2268,3.2322,3.2325,3.2285,3.2287,3.2289,3.229,0,0,0,0,0,0,0,3.2095,3.2103,3.2184,3.2167,3.2169,3.2168,3.2174,3.221,3.223,3.22,3.22,3.2206,3.2251,3.2265,3.2269,3.2326,3.2285,3.2288,3.229,3.2291,3.2421,3.2422,0,0,0,0,0,0,3.209,3.21,3.2182,3.2185,3.213,3.2171,3.2177,3.2197,3.223,3.2234,3.2207,3.2206,3.226,3.2265,3.2271,3.2328,3.2289,3.2292,3.2294,3.2419,3.2421,3.2422,0,0,0,0,0,0,3.2088,3.2098,3.218,3.2143,3.2153,3.2174,3.2196,3.2199,3.2213,3.2236,3.2239,3.2218,3.2259,3.2267,3.2308,3.233,3.2293,3.2296,3.2418,3.242,3.2422,3.244,0,0,0,0,0,0,3.2085,3.2097,3.2115,3.2143,3.2155,3.2216,3.2197,3.2201,3.2219,3.2218,3.2247,3.2251,3.2259,3.2303,3.2311,3.2334,3.2299,3.2416,3.2419,3.2421,3.2438,3.2443,3.2447,0,0,0,0,0,3.2081,3.2117,3.2115,3.2125,3.2178,3.2217,3.2224,3.2233,3.2221,3.2239,3.2253,3.225,3.2325,3.2307,3.2317,3.234,3.2415,3.2418,3.2421,3.2436,3.2442,3.2447,0,0,0,0,0,0,3.2089,3.2121,3.212,3.2166,3.2189,3.2217,3.224,3.2239,3.2266,3.2263,3.2273,3.2279,3.2321,3.2334,3.2314,3.2386,3.2368,3.2374,3.2376,3.2382,3.2387,3.2383,3.2302,0,0,0,0,0,3.2097,3.2127,3.2152,3.2191,3.2202,3.2219,3.2236,3.2241,3.2265,3.2275,3.2293,3.2316,3.2345,3.2364,3.2392,3.2439,3.2446,3.2459,3.2464,3.2468,3.2473,3.25,3.2507,3.2433,3.2433,3.2433,0,0,3.2112,3.2133,3.2151,3.2193,3.2211,3.2242,3.2227,3.226,3.2283,3.228,3.2321,3.2334,3.2361,3.2406,3.2426,3.2418,3.2494,3.2472,3.2474,3.2478,3.2504,3.2511,3.2517,3.2435,3.2435,3.2434,0,0,3.2157,3.2175,3.221,3.2229,3.2257,3.2268,3.2276,3.2304,3.2313,3.2354,3.2353,3.238,3.2429,3.2449,3.2465,3.2517,3.2515,3.2525,3.255,3.2576,3.2582,3.2587,3.2607,3.2614,3.253,3.253,3.253,0,3.2173,3.2219,3.2228,3.2261,3.228,3.2279,3.2315,3.2332,3.2368,3.2381,3.2371,3.2434,3.2451,3.2501,3.2514,3.2527,3.2537,3.2523,3.258,3.2586,3.2591,3.261,3.2617,3.2531,3.2531,3.2531,3.2531,0,3.2238,3.227,3.2295,3.2331,3.2352,3.2386,3.24,3.242,3.2422,3.2434,3.2476,3.2497,3.253,3.2542,3.2544,3.2592,3.2587,3.2578,3.2561,3.2599,3.2617,3.2624,3.2533,3.2532,3.2532,3.2532,0,0,3.2291,3.2331,3.234,3.2357,3.2388,3.2413,3.2447,3.2479,3.2497,3.2521,3.2551,3.2593,3.2586,3.2604,3.2608,3.2631,3.2673,3.262,3.2621,3.2631,3.2728,3.2736,3.2744,3.2671,3.2672,3.2673,3.2727,0,3.234,3.2402,3.241,3.2465,3.2495,3.2494,3.2524,3.2546,3.2558,3.2585,3.2597,3.2628,3.2615,3.2626,3.2649,3.2663,3.2693,3.2659,3.2699,3.27,3.2695,3.2754,3.2762,3.2811,3.2734,3.2735,3.2736,0,3.2406,3.2434,3.2491,3.2519,3.2532,3.2559,3.259,3.2615,3.264,3.2647,3.2668,3.267,3.2705,3.2685,3.2734,3.2711,3.2727,3.2736,3.2738,3.2744,3.2722,3.2763,3.2827,3.2836,3.2747,3.2746,3.2745,0,3.2441,3.2492,3.2534,3.2548,3.258,3.2599,3.2614,3.2638,3.2657,3.2683,3.2696,3.2726,3.2743,3.2766,3.2775,3.276,3.2824,3.2805,3.2832,3.2832,3.2847,3.2846,3.2917,3.2854,3.2854,3.2854,3.2854,0,3.2497,3.2532,3.255,3.2576,3.2616,3.2625,3.2664,3.2678,3.2699,3.2727,3.2727,3.2753,3.2764,3.2792,3.2799,3.2839,3.2846,3.2853,3.2855,3.2855,3.2854,3.2867,3.2865,3.2856,3.2856,3.2855,3.2855,0,3.2544,3.2557,3.2602,3.263,3.2637,3.2666,3.2689,3.2714,3.2725,3.2761,3.277,3.2787,3.282,3.2831,3.2871,3.2876,3.2923,3.2921,3.2916,3.2916,3.2944,3.2942,3.3027,3.3039,3.2966,3.2967,3.2968,0,3.2579,3.2607,3.2638,3.2657,3.2672,3.2703,3.2723,3.2732,3.2753,3.2784,3.2805,3.2838,3.2865,3.2917,3.2933,3.2964,3.2964,3.2991,3.2968,3.2967,3.2966,3.2965,3.2969,3.2996,3.2997,3.2998,3.2998,0,3.2641,3.2647,3.2676,3.2708,3.2731,3.2756,3.2781,3.2796,3.2809,3.2832,3.2866,3.2887,3.2928,3.2961,3.2992,3.3007,3.3005,3.3005,3.3013,3.3014,3.301,3.3014,3.2929,3.3003,3.3003,3.3003,3.3002,3.3002,3.2685,3.271,3.2736,3.2769,3.2788,3.2811,3.2836,3.285,3.2879,3.2914,3.2917,3.2954,3.2978,3.302,3.3036,3.3065,3.3057,3.3068,3.3072,3.3075,3.3078,3.3004,3.307,3.307,3.307,3.307,3.3069,0,3.2749,3.2766,3.2795,3.283,3.2856,3.2851,3.2878,3.29,3.2933,3.2956,3.2982,3.3022,3.3054,3.3072,3.3104,3.3124,3.3124,3.3132,3.3131,3.3135,3.3082,3.3073,3.3131,3.3131,3.3131,3.3131,3.3131,3.3131,3.2786,3.2828,3.2837,3.2889,3.2905,3.2942,3.2958,3.2979,3.2997,3.3042,3.3069,3.308,3.3101,3.3135,3.3164,3.3168,3.3181,3.319,3.3194,3.3145,3.3139,3.3133,3.3124,3.3192,3.3192,3.3245,3.3245,3.3246]}]]